Weather History for Warrensburg, MO

Change the Weather History Date:

Wednesday, March 6, 2013

  Actual Average (KSZL) Record (KSZL)
Temperature  
Mean Temperature 28 °F -  
Max Temperature 32 °F 46 °F 95 °F (2006)
Min Temperature 23 °F 27 °F 21 °F (2001)
Degree Days  
Heating Degree Days 38    
Moisture  
Dew Point 19 °F    
Average Humidity 68    
Maximum Humidity 80    
Minimum Humidity 60    
Precipitation  
Precipitation 0.00 in - - ()
Sea Level Pressure  
Sea Level Pressure 30.37 in    
Wind  
Wind Speed 7 mph (North)    
Max Wind Speed 15 mph    
Max Gust Speed 21 mph    
Visibility 10 miles    
Events      
Averages and records for this station are not official NWS values.
T = Trace of Precipitation, MM = Missing Value Source: NWS Daily Summary

Daily Weather History Graph

Daily Weather History Graph

Search for Another Location

Airport:

Trip Planner

Search our weather history database for the weather conditions in past years. The results will help you decide how hot, cold, wet, or windy it might be!

Date:

Astronomy

Mar. 06, 2013 Rise Set
Actual Time 6:39 AM CST 6:13 PM CST
Civil Twilight 6:13 AM CST 6:40 PM CST
Nautical Twilight 5:42 AM CST 7:10 PM CST
Astronomical Twilight 5:11 AM CST 7:41 PM CST
Moon 2:47 AM CST (3/6) 12:58 PM CST (3/6)
Length of Visible Light 12h 26m
Length of Day
11h 33m
Waning Crescent, 29% of the Moon is Illuminated
Mar 6
Waning Crescent
Mar 11
New
Mar 19
First Quarter
Mar 27
Full
Apr 2
Last Quarter

Hourly Weather History & Observations

Time (CST) Temp. Windchill Dew Point Humidity Pressure Visibility Wind Dir Wind Speed Gust Speed Precip Events Conditions
12:15 AM 28.4 °F 19.7 °F 19.4 °F 69% 30.32 in 10.0 mi NW 9.2 mph - N/A   Overcast
12:35 AM 28.4 °F 18.0 °F 19.4 °F 69% 30.34 in 10.0 mi NW 12.7 mph - N/A   Scattered Clouds
12:55 AM 28.4 °F 18.5 °F 17.6 °F 64% 30.34 in 10.0 mi NW 11.5 mph - N/A   Scattered Clouds
1:15 AM 28.4 °F 17.5 °F 17.6 °F 64% 30.35 in 10.0 mi NW 13.8 mph - N/A   Mostly Cloudy
1:35 AM 28.4 °F 19.1 °F 17.6 °F 64% 30.35 in 10.0 mi NW 10.4 mph - N/A   Overcast
1:55 AM 28.4 °F 18.5 °F 17.6 °F 64% 30.36 in 10.0 mi NW 11.5 mph 20.7 mph N/A   Overcast
2:15 AM 28.4 °F 17.0 °F 17.6 °F 64% 30.36 in 10.0 mi NNW 15.0 mph - N/A   Overcast
2:35 AM 28.4 °F 18.0 °F 17.6 °F 64% 30.35 in 10.0 mi NNW 12.7 mph - N/A   Overcast
2:55 AM 28.4 °F 21.2 °F 19.4 °F 69% 30.36 in 10.0 mi NNW 6.9 mph - N/A   Overcast
3:15 AM 28.4 °F 17.5 °F 17.6 °F 64% 30.36 in 10.0 mi NW 13.8 mph 18.4 mph N/A   Overcast
3:35 AM 28.4 °F 19.1 °F 19.4 °F 69% 30.37 in 10.0 mi NNW 10.4 mph - N/A   Overcast
3:55 AM 28.4 °F 20.4 °F 19.4 °F 69% 30.37 in 10.0 mi NNW 8.1 mph - N/A   Overcast
4:15 AM 28.4 °F 19.7 °F 19.4 °F 69% 30.37 in 10.0 mi NNW 9.2 mph - N/A   Mostly Cloudy
4:35 AM 26.6 °F 19.1 °F 17.6 °F 69% 30.38 in 10.0 mi NW 6.9 mph - N/A   Scattered Clouds
4:55 AM 26.6 °F 18.2 °F 17.6 °F 69% 30.38 in 10.0 mi NW 8.1 mph - N/A   Mostly Cloudy
5:15 AM 26.6 °F 21.2 °F 17.6 °F 69% 30.39 in 10.0 mi WNW 4.6 mph - N/A   Scattered Clouds
5:35 AM 24.8 °F 17.9 °F 17.6 °F 74% 30.40 in 10.0 mi WNW 5.8 mph - N/A   Clear
5:55 AM 24.8 °F 16.9 °F 17.6 °F 74% 30.40 in 10.0 mi WNW 6.9 mph - N/A   Clear
6:15 AM 24.8 °F 19.1 °F 17.6 °F 74% 30.40 in 10.0 mi NW 4.6 mph - N/A   Clear
6:35 AM 23.0 °F 15.8 °F 15.8 °F 74% 30.41 in 10.0 mi NW 5.8 mph - N/A   Clear
6:55 AM 23.0 °F 15.8 °F 17.6 °F 80% 30.41 in 10.0 mi NW 5.8 mph - N/A   Clear
7:15 AM 23.0 °F 15.8 °F 17.6 °F 80% 30.41 in 10.0 mi WNW 5.8 mph - N/A   Clear
7:35 AM 23.0 °F 15.8 °F 17.6 °F 80% 30.42 in 10.0 mi WNW 5.8 mph - N/A   Clear
8:15 AM 26.6 °F 19.1 °F 17.6 °F 69% 30.43 in 10.0 mi NW 6.9 mph - N/A   Clear
8:35 AM 26.6 °F 17.5 °F 17.6 °F 69% 30.43 in 10.0 mi NNW 9.2 mph - N/A   Clear
8:55 AM 26.6 °F 18.2 °F 17.6 °F 69% 30.43 in 10.0 mi NNW 8.1 mph - N/A   Clear
9:15 AM 28.4 °F 19.7 °F 19.4 °F 69% 30.43 in 10.0 mi North 9.2 mph - N/A   Scattered Clouds
9:35 AM 28.4 °F 19.7 °F 17.6 °F 64% 30.43 in 10.0 mi NNW 9.2 mph - N/A   Mostly Cloudy
9:55 AM 28.4 °F 18.5 °F 19.4 °F 69% 30.43 in 10.0 mi North 11.5 mph 16.1 mph N/A   Mostly Cloudy
10:15 AM 30.2 °F 21.9 °F 19.4 °F 64% 30.43 in 10.0 mi North 9.2 mph - N/A   Mostly Cloudy
10:55 AM 30.2 °F 24.3 °F 19.4 °F 64% 30.43 in 10.0 mi North 5.8 mph - N/A   Mostly Cloudy
11:15 AM 30.2 °F 22.6 °F 19.4 °F 64% 30.43 in 10.0 mi NNE 8.1 mph - N/A   Overcast
11:35 AM 30.2 °F 22.6 °F 19.4 °F 64% 30.43 in 10.0 mi WNW 8.1 mph - N/A   Overcast
11:55 AM 30.2 °F 25.4 °F 19.4 °F 64% 30.43 in 10.0 mi NNW 4.6 mph - N/A   Overcast
12:15 PM 30.2 °F - 19.4 °F 64% 30.42 in 10.0 mi Calm Calm - N/A   Overcast
12:55 PM 30.2 °F 26.7 °F 19.4 °F 64% 30.41 in 10.0 mi NNW 3.5 mph - N/A   Overcast
1:15 PM 32.0 °F - 19.4 °F 60% 30.41 in 10.0 mi Calm Calm - N/A   Mostly Cloudy
1:35 PM 30.2 °F - 19.4 °F 64% 30.40 in 10.0 mi Calm Calm - N/A   Scattered Clouds
1:55 PM 32.0 °F - 19.4 °F 60% 30.39 in 10.0 mi Calm Calm - N/A   Scattered Clouds
2:15 PM 32.0 °F - 19.4 °F 60% 30.39 in 10.0 mi Calm Calm - N/A   Clear
2:35 PM 32.0 °F - 19.4 °F 60% 30.40 in 10.0 mi Calm Calm - N/A   Clear
2:55 PM 32.0 °F - 19.4 °F 60% 30.39 in 10.0 mi Calm Calm - N/A   Clear
3:15 PM 32.0 °F - 19.4 °F 60% 30.38 in 10.0 mi Calm Calm - N/A   Clear
3:35 PM 32.0 °F 28.7 °F 21.2 °F 64% 30.37 in 10.0 mi NNE 3.5 mph - N/A   Clear
3:55 PM 32.0 °F - 19.4 °F 60% 30.37 in 10.0 mi Calm Calm - N/A   Clear
4:15 PM 32.0 °F - 21.2 °F 64% 30.36 in 10.0 mi Calm Calm - N/A   Clear
4:35 PM 32.0 °F 28.7 °F 21.2 °F 64% 30.35 in 10.0 mi NNE 3.5 mph - N/A   Clear
4:55 PM 32.0 °F - 19.4 °F 60% 30.35 in 10.0 mi Calm Calm - N/A   Clear
5:15 PM 32.0 °F 27.5 °F 19.4 °F 60% 30.34 in 10.0 mi North 4.6 mph - N/A   Clear
5:35 PM 32.0 °F - 19.4 °F 60% 30.34 in 10.0 mi Calm Calm - N/A   Clear
5:55 PM 30.2 °F 25.4 °F 21.2 °F 69% 30.34 in 10.0 mi NE 4.6 mph - N/A   Clear
6:15 PM 30.2 °F 25.4 °F 19.4 °F 64% 30.34 in 10.0 mi ENE 4.6 mph - N/A   Clear
6:35 PM 30.2 °F 25.4 °F 19.4 °F 64% 30.33 in 10.0 mi NE 4.6 mph - N/A   Clear
6:55 PM 28.4 °F 24.6 °F 19.4 °F 69% 30.33 in 10.0 mi NE 3.5 mph - N/A   Clear
7:15 PM 28.4 °F 24.6 °F 19.4 °F 69% 30.33 in 10.0 mi NE 3.5 mph - N/A   Clear
7:35 PM 28.4 °F 24.6 °F 19.4 °F 69% 30.33 in 10.0 mi NE 3.5 mph - N/A   Clear
7:55 PM 28.4 °F 24.6 °F 19.4 °F 69% 30.32 in 10.0 mi ENE 3.5 mph - N/A   Clear
8:15 PM 28.4 °F 24.6 °F 19.4 °F 69% 30.32 in 10.0 mi ENE 3.5 mph - N/A   Clear
8:35 PM 26.6 °F - 19.4 °F 74% 30.33 in 10.0 mi Calm Calm - N/A   Clear
8:55 PM 26.6 °F 21.2 °F 19.4 °F 74% 30.33 in 10.0 mi East 4.6 mph - N/A   Clear
9:15 PM 26.6 °F 22.6 °F 19.4 °F 74% 30.32 in 10.0 mi ENE 3.5 mph - N/A   Clear
9:55 PM 26.6 °F 21.2 °F 19.4 °F 74% 30.32 in 10.0 mi East 4.6 mph - N/A   Clear
10:15 PM 26.6 °F 20.0 °F 19.4 °F 74% 30.31 in 10.0 mi ENE 5.8 mph - N/A   Clear
10:35 PM 26.6 °F 21.2 °F 19.4 °F 74% 30.31 in 10.0 mi East 4.6 mph - N/A   Clear
10:55 PM 24.8 °F 19.1 °F 19.4 °F 80% 30.31 in 10.0 mi East 4.6 mph - N/A   Clear
11:15 PM 24.8 °F 20.5 °F 19.4 °F 80% 30.31 in 10.0 mi East 3.5 mph - N/A   Clear
11:35 PM 24.8 °F 20.5 °F 19.4 °F 80% 30.31 in 10.0 mi East 3.5 mph - N/A   Clear
11:55 PM 24.8 °F 19.1 °F 19.4 °F 80% 30.30 in 10.0 mi East 4.6 mph - N/A   Clear